PRAETORIAN SDA_608

导读

PRAETORIAN SDA_609是美国于2025年9月10日在加利福尼亚州空军西部试验场发射的军事卫星,隶属于美国太空发展局低轨卫星星座组网任务,和同批次20余颗PRAETORIAN系列卫星共同入轨。该卫星运行于近950公里高度的近极轨近圆轨道,周期约104分钟,截至2026年3月仍保持 operational 在轨运行状态,是美国构建扩散型太空作战架构的组成部分,服务军事太空态势感知等任务需求。

基本信息
目录编号:
65572
目录名称:
PRAETORIAN SDA_609
国际标识:
2025-203H
轨道中心:
EARTH
卫星名称:
PRAETORIAN SDA_609
卫星全名:
PRAETORIAN SDA_608
卫星状态:
在轨 (已飞行281 天)
发射日期:
2025-09-10 UTC
国别 :
美国 (US)
星等 :
--
轨道信息
数据来源 国际轨道数据 AOE轨道数据
星历时间 2026-06-17T23:49:15+0800
10小时前
查看轨道信息
2026-06-17T09:00:00+0800
1天前
查看轨道信息
半长轴 7327.122km 7327.122km
偏心率 0.0006806 0.0006564
轨道倾角 81.305° 81.307°
近地点辐角 183.289° 186.627°
升交点赤经 10.354° 10.925°
平近点角 176.823° 337.907°
近地点 943.998km 944.175km
远地点 953.972km 953.795km
周期 104.030分钟 104.030分钟
每日圈数 13.842121 13.842122
详细信息
使用方式:
暂无
2D轨道图
3D轨道图
轨道高度分析图
轨道倾角分析图
轨道综合分析图
查看轨道综合分析图